Preston, Minnesota, United States (55965)
Lat: 43.67N, Lon: 92.08W
Wx Zone: MNZ095
Local Info
Past Weather Observations for Sunday, December 14, 2014

NOTE: This archive is for the closest National Weather Service station to Preston. Information may differ from the station used for current weather conditions.

Click here for Long-term Archive

Time Weather Temperature Dewpoint Humidity Pressure Winds Precip Visibility
23:55
Overcast
Fog
45°F / 7°C 45°F / 7°C 100% 29.89 in
(1012 mb)
SSE 5.8 mph
(SSE 9 kph)
- 1/4SM
23:36
Overcast
Fog
45°F / 7°C 45°F / 7°C 100% 29.89 in
(1012 mb)
SSE 4.6 mph
(SSE 7 kph)
- 1/4SM
23:15
Overcast
Fog
45°F / 7°C 45°F / 7°C 100% 29.89 in
(1012 mb)
SSE 5.8 mph
(SSE 9 kph)
- 1/4SM
22:55
Overcast
Fog
45°F / 7°C 45°F / 7°C 100% 29.89 in
(1012 mb)
S 4.6 mph
(S 7 kph)
- 1/4SM
22:35
Overcast
Fog
45°F / 7°C 45°F / 7°C 100% 29.89 in
(1012 mb)
SSE 8.1 mph
(SSE 13 kph)
- 1/4SM
22:16
Overcast
Fog
45°F / 7°C 45°F / 7°C 100% 29.89 in
(1012 mb)
SSE 6.9 mph
(SSE 11 kph)
- 1/4SM
21:55
Overcast
Fog
45°F / 7°C 45°F / 7°C 100% 29.89 in
(1012 mb)
SSE 6.9 mph
(SSE 11 kph)
- 1/4SM
21:36
Overcast
Fog
45°F / 7°C 45°F / 7°C 100% 29.89 in
(1012 mb)
SSE 4.6 mph
(SSE 7 kph)
- 1/4SM
21:15
Overcast
Fog
45°F / 7°C 45°F / 7°C 100% 29.89 in
(1012 mb)
SSE 4.6 mph
(SSE 7 kph)
- 1/4SM
20:55
Overcast
Fog
45°F / 7°C 45°F / 7°C 100% 29.89 in
(1012 mb)
SSE 5.8 mph
(SSE 9 kph)
- 1/4SM
20:35
Overcast
Fog
46°F / 8°C 45°F / 7°C 93% 29.89 in
(1012 mb)
SSE 5.8 mph
(SSE 9 kph)
- 1/4SM
20:15
Overcast
Fog
46°F / 8°C 45°F / 7°C 93% 29.89 in
(1012 mb)
SSE 6.9 mph
(SSE 11 kph)
- 1/4SM
19:55
Overcast
Fog
46°F / 8°C 45°F / 7°C 93% 29.89 in
(1012 mb)
SSE 8.1 mph
(SSE 13 kph)
- 1/4SM
19:35
Overcast
Fog
46°F / 8°C 45°F / 7°C 93% 29.89 in
(1012 mb)
SSE 6.9 mph
(SSE 11 kph)
- 1/4SM
19:15
Overcast
Fog
46°F / 8°C 45°F / 7°C 93% 29.89 in
(1012 mb)
SSE 4.6 mph
(SSE 7 kph)
- 1/4SM
18:55
Overcast
Fog
46°F / 8°C 45°F / 7°C 93% 29.89 in
(1012 mb)
SSE 5.8 mph
(SSE 9 kph)
- M1/4SM
18:36
Overcast
Fog
46°F / 8°C 45°F / 7°C 93% 29.89 in
(1012 mb)
SSE 6.9 mph
(SSE 11 kph)
- M1/4SM
18:15
Overcast
Fog
46°F / 8°C 46°F / 8°C 100% 29.92 in
(1013 mb)
SSE 5.8 mph
(SSE 9 kph)
- M1/4SM
17:55
Overcast
Fog
46°F / 8°C 46°F / 8°C 100% 29.92 in
(1013 mb)
SE 5.8 mph
(SE 9 kph)
- 1/4SM
17:36
Overcast
Fog
46°F / 8°C 46°F / 8°C 100% 29.92 in
(1013 mb)
SSE 9.2 mph
(SSE 15 kph)
- 1/4SM
17:15
Overcast
Fog
46°F / 8°C 46°F / 8°C 100% 29.92 in
(1013 mb)
SSE 8.1 mph
(SSE 13 kph)
- 1/4SM
16:55
Overcast
Fog
46°F / 8°C 45°F / 7°C 93% 29.92 in
(1013 mb)
SSE 5.8 mph
(SSE 9 kph)
- 1/4SM
16:36
Overcast
Fog
46°F / 8°C 46°F / 8°C 100% 29.92 in
(1013 mb)
SSE 8.1 mph
(SSE 13 kph)
- M1/4SM
16:15
Overcast
Fog
46°F / 8°C 46°F / 8°C 100% 29.92 in
(1013 mb)
SSE 6.9 mph
(SSE 11 kph)
- M1/4SM
15:55
Overcast
Fog
46°F / 8°C 46°F / 8°C 100% 29.92 in
(1013 mb)
SSE 6.9 mph
(SSE 11 kph)
- M1/4SM
15:35
Overcast
Fog
46°F / 8°C 46°F / 8°C 100% 29.92 in
(1013 mb)
SSE 5.8 mph
(SSE 9 kph)
- M1/4SM
15:15
Overcast
Fog
46°F / 8°C 46°F / 8°C 100% 29.92 in
(1013 mb)
S 8.1 mph
(S 13 kph)
- M1/4SM
14:55
Overcast
Fog
46°F / 8°C 46°F / 8°C 100% 29.92 in
(1013 mb)
S 5.8 mph
(S 9 kph)
- M1/4SM
14:35
Overcast
Fog
46°F / 8°C 46°F / 8°C 100% 29.89 in
(1012 mb)
S 8.1 mph
(S 13 kph)
- 1/4SM
14:16
Overcast
Fog
46°F / 8°C 46°F / 8°C 100% 29.89 in
(1012 mb)
S 8.1 mph
(S 13 kph)
- 1/4SM
13:55
Overcast
Fog
46°F / 8°C 46°F / 8°C 100% 29.89 in
(1012 mb)
S 6.9 mph
(S 11 kph)
- M1/4SM
13:35
Overcast
Fog
46°F / 8°C 46°F / 8°C 100% 29.89 in
(1012 mb)
S 6.9 mph
(S 11 kph)
- 1/4SM
13:15
Overcast
Fog
46°F / 8°C 46°F / 8°C 100% 29.92 in
(1013 mb)
S 8.1 mph
(S 13 kph)
- M1/4SM
12:55
Overcast
Fog
46°F / 8°C 45°F / 7°C 93% 29.92 in
(1013 mb)
S 6.9 mph
(S 11 kph)
- M1/4SM
12:35
Overcast
Fog
46°F / 8°C 45°F / 7°C 93% 29.92 in
(1013 mb)
S 8.1 mph
(S 13 kph)
- M1/4SM
12:16
Overcast
Fog
45°F / 7°C 45°F / 7°C 100% 29.92 in
(1013 mb)
S 8.1 mph
(S 13 kph)
- M1/4SM
11:55
Overcast
Fog
45°F / 7°C 45°F / 7°C 100% 29.92 in
(1013 mb)
S 10.4 mph
(S 17 kph)
- M1/4SM
11:35
Overcast
Fog
45°F / 7°C 45°F / 7°C 100% 29.95 in
(1014 mb)
S 8.1 mph
(S 13 kph)
- M1/4SM
11:15
Overcast
Fog
45°F / 7°C 45°F / 7°C 100% 29.95 in
(1014 mb)
S 9.2 mph
(S 15 kph)
- M1/4SM
10:56
Overcast
Fog
45°F / 7°C 45°F / 7°C 100% 29.95 in
(1014 mb)
S 8.1 mph
(S 13 kph)
- M1/4SM
10:35
Overcast
Fog
45°F / 7°C 45°F / 7°C 100% 29.95 in
(1014 mb)
S 6.9 mph
(S 11 kph)
- M1/4SM
10:15
Overcast
Fog
45°F / 7°C 43°F / 6°C 93% 29.95 in
(1014 mb)
S 8.1 mph
(S 13 kph)
- M1/4SM
09:56
Overcast
Fog
45°F / 7°C 43°F / 6°C 93% 29.95 in
(1014 mb)
S 6.9 mph
(S 11 kph)
- M1/4SM
09:35
Overcast
Fog
43°F / 6°C 43°F / 6°C 100% 29.98 in
(1015 mb)
S 6.9 mph
(S 11 kph)
- M1/4SM
09:15
Overcast
Fog
45°F / 7°C 43°F / 6°C 93% 29.98 in
(1015 mb)
S 8.1 mph
(S 13 kph)
- M1/4SM
08:55
Overcast
Fog
43°F / 6°C 43°F / 6°C 100% 29.95 in
(1014 mb)
S 8.1 mph
(S 13 kph)
- M1/4SM
08:35
Overcast
Fog
43°F / 6°C 43°F / 6°C 100% 29.98 in
(1015 mb)
S 10.4 mph
(S 17 kph)
- M1/4SM
08:15
Overcast
Fog
43°F / 6°C 43°F / 6°C 100% 29.95 in
(1014 mb)
S 9.2 mph
(S 15 kph)
- M1/4SM
07:55
Overcast
Fog
43°F / 6°C 43°F / 6°C 100% 29.95 in
(1014 mb)
S 8.1 mph
(S 13 kph)
- M1/4SM
07:35
Overcast
Fog
43°F / 6°C 43°F / 6°C 100% 29.95 in
(1014 mb)
S 10.4 mph
(S 17 kph)
- 1/4SM
07:15
Overcast
Fog
43°F / 6°C 43°F / 6°C 100% 29.95 in
(1014 mb)
S 8.1 mph
(S 13 kph)
- 1/4SM
06:55
Overcast
Fog
43°F / 6°C 43°F / 6°C 100% 29.95 in
(1014 mb)
SSE 8.1 mph
(SSE 13 kph)
- 1/4SM
06:35
Overcast
Fog
43°F / 6°C 43°F / 6°C 100% 29.98 in
(1015 mb)
SSE 6.9 mph
(SSE 11 kph)
- 1/4SM
06:15
Overcast
Fog
43°F / 6°C 41°F / 5°C 93% 29.95 in
(1014 mb)
S 6.9 mph
(S 11 kph)
- 1/4SM
05:55
Overcast
Fog
43°F / 6°C 41°F / 5°C 93% 29.98 in
(1015 mb)
S 8.1 mph
(S 13 kph)
- 1/4SM
05:35
Overcast
Fog
43°F / 6°C 41°F / 5°C 93% 29.98 in
(1015 mb)
S 6.9 mph
(S 11 kph)
- 1/4SM
05:15
Overcast
Fog
41°F / 5°C 41°F / 5°C 100% 29.98 in
(1015 mb)
S 8.1 mph
(S 13 kph)
- 1/4SM
04:56
Overcast
Fog
41°F / 5°C 41°F / 5°C 100% 29.98 in
(1015 mb)
S 5.8 mph
(S 9 kph)
- 1/4SM
04:35
Overcast
Fog
43°F / 6°C 41°F / 5°C 93% 29.98 in
(1015 mb)
S 6.9 mph
(S 11 kph)
- 1/4SM
04:15
Overcast
Fog
43°F / 6°C 41°F / 5°C 93% 29.98 in
(1015 mb)
S 8.1 mph
(S 13 kph)
- M1/4SM
03:55
Overcast
Fog
43°F / 6°C 41°F / 5°C 93% 29.98 in
(1015 mb)
S 8.1 mph
(S 13 kph)
- M1/4SM
03:36
Overcast
Fog
43°F / 6°C 43°F / 6°C 100% 29.98 in
(1015 mb)
S 6.9 mph
(S 11 kph)
- M1/4SM
03:15
Overcast
Fog
43°F / 6°C 43°F / 6°C 100% 29.98 in
(1015 mb)
S 6.9 mph
(S 11 kph)
- M1/4SM
02:55
Overcast
Fog
43°F / 6°C 43°F / 6°C 100% 29.98 in
(1015 mb)
SSE 9.2 mph
(SSE 15 kph)
- 1/4SM
02:35
Overcast
Fog
43°F / 6°C 43°F / 6°C 100% 30.01 in
(1016 mb)
S 8.1 mph
(S 13 kph)
- 1/4SM
02:16
Overcast
Fog
43°F / 6°C 43°F / 6°C 100% 29.98 in
(1015 mb)
S 8.1 mph
(S 13 kph)
- 1/2SM
01:55
Overcast
Fog
43°F / 6°C 43°F / 6°C 100% 29.98 in
(1015 mb)
SSE 8.1 mph
(SSE 13 kph)
- 1/2SM
01:35
Overcast
Fog
43°F / 6°C 43°F / 6°C 100% 29.98 in
(1015 mb)
S 8.1 mph
(S 13 kph)
- 1/2SM
01:15
Overcast
Fog
43°F / 6°C 43°F / 6°C 100% 29.98 in
(1015 mb)
S 10.4 mph
(S 17 kph)
- 1/2SM
00:55
Overcast
Fog And Mist
43°F / 6°C 43°F / 6°C 100% 29.98 in
(1015 mb)
S 9.2 mph
(S 15 kph)
- 3/4SM
00:35
Overcast
Fog And Mist
43°F / 6°C 43°F / 6°C 100% 29.98 in
(1015 mb)
SSE 10.4 mph
(SSE 17 kph)
- 3/4SM
00:16
Overcast
Fog
43°F / 6°C 43°F / 6°C 100% 30.01 in
(1016 mb)
SSE 9.2 mph
(SSE 15 kph)
- 1/2SM
Time Weather Temperature Dewpoint Humidity Pressure Winds Precip Visibility


Weather for websites

WeatherForYou.com, LLC is not responsible for any damages or problems caused by this service. Current weather conditions are obtained from the closest station including government and personal stations which may have varying degrees of accuracy. Weather forecasts are derived from the NOAA NDFD. Like all things, this site belongs to Jesus Christ... He just trusts me to maintain it. If you have any questions or comments email webmaster@weatherforyou.com

Copyright © 2014, WeatherForYou.com LLC. All rights reserved.